Regional Weather Roundup
Issued by NWS

Home | Current Version | Previous Version | Graphics & Text | Print | Product List | Glossary On
Versions: 1 2 3 4 5 6 7 8 9 10 11 12 13 14 15 16 17 18 19 20 21 22 23 24 25 26 27 28 29 30 31 32 33 34 35 36 37 38 39 40 41 42 43 44 45 46 47 48 49 50
641
ASUS43 KLMK 250102
RWRKY
KENTUCKY REGIONAL WEATHER ROUNDUP
NATIONAL WEATHER SERVICE LOUISVILLE KY
900 PM EDT FRI MAR 24 2017

NOTE "FAIR" INDICATES FEW OR NO CLOUDS BELOW 12,000 FEET
WITH NO SIGNIFICANT WEATHER AND/OR OBSTRUCTIONS TO VISIBILITY.

KYZ001>023-026-027-061>063-070>075-250200-
WESTERN AND SOUTH CENTRAL KENTUCKY

CITY           SKY/WX    TMP DP  RH WIND       PRES   REMARKS
PADUCAH        CLOUDY    68  54  60 SE7       30.04R
HENDERSON      CLOUDY    57  52  82 S7        30.06R
OWENSBORO      MOCLDY    69  54  58 S10G17    30.07F
HOPKINSVILLE   CLOUDY    70  54  55 SE9       30.07F
BOWLING GREEN  MOCLDY    70  53  54 S9        30.15S
GLASGOW        NOT AVBL
$$

KYZ024-025-028>034-038-045-046-053-250200-
NORTH CENTRAL KENTUCKY

CITY           SKY/WX    TMP DP  RH WIND       PRES   REMARKS
LOUISVILLE/SDF CLOUDY    71  50  47 S12       30.11F
LOUISVILLE/LOU MOCLDY    71  52  50 S8        30.12F
FORT KNOX      CLOUDY    68  53  59 S13       30.11F
$$

KYZ035>037-039>044-047>052-055>060-089>105-250200-
NORTHEAST KENTUCKY

CITY           SKY/WX    TMP DP  RH WIND       PRES   REMARKS
LEXINGTON      PTCLDY    66  50  56 S7        30.17R
COVINGTON      CLOUDY    68  52  56 S12G20    30.11S
FRANKFORT      MOCLDY    68  50  52 S7        30.14S
$$

KYZ054-064>069-076>088-106>120-250200-
SOUTHEAST KENTUCKY

CITY           SKY/WX    TMP DP  RH WIND       PRES   REMARKS
JACKSON        CLOUDY    69  48  47 VRB6      30.21R
LONDON         CLEAR     66  47  50 SW9       30.23R
SOMERSET       NOT AVBL
MIDDLESBORO    CLEAR     65  49  56 S3        30.27S
MONTICELLO     PTCLDY    65  50  58 VRB7      30.24R
$$





USA.gov is the U.S. government's official web portal to all federal, state and local government web resources and services.